It's Wednesday,
August 24th, 2016
User not logged in
[Run Race Header Image][Run Race logo]
  
Race webcasting is attempted by race directors and their support staff. Please remember that conditions under which they're working may make it difficult to post timely webcast updates... your interest and patience is appreciated!
Race Information
Race Name:Kettle 100 Endurance Runs - 2010
Location:LaGrange
State:Wisconsin, United States
 button: button: Webcast Autoplay
Event Information
Name of Event:Kettle 100 solo
Distance:100.00
Measurement:Miles
Date:Saturday June 5th, 2010
button: Assign Numbers  
Checkpoint:Scuppernong Turnaround
Distance:31.6 Miles
Gun Start Time:Saturday June 5th, 2010 5:59:50.25 am
Calculate Chip Start Time:< not set >
Y or N... Calculate splits based upon participant chip start time?
Allow Early Chip Start Time:< not set >
Y or N... Allow participants a chip start time prior to gun start?
Pos Race
Number
NameAgeSexTimePace 
1133Darin Schneidewind40M4:58:28.79:26.7
2108JOSH MILLER38M5:04:52.79:38.9
3118Jim Ramacier46M5:11:18.39:51.1
439Glen Delman44M5:14:48.99:57.8
518Brad Bishop24M5:16:48.510:01.5
6134Paul Schoenlaub50M5:19:03.610:05.8
743Jon Docs47M5:20:44.110:09.0
866Kevin grabowski41M5:25:55.810:18.9
971Ed Heller48M5:30:20.310:27.2
10110Nolan Ming34M5:37:22.410:40.6
1175Matt Hosking42M5:37:53.710:41.6
1237Norman Decelles25M5:38:36.610:42.9
1340Michael DeMeritt49M5:41:40.010:48.7
14146Pete Summers48M5:44:06.410:53.4
1589Thomas Keene29M5:45:36.310:56.2
16152Drake Tollenaar41M5:46:52.710:58.6
1751David Eckburg38M5:50:03.711:04.7
18165Don Zimmer46M5:50:55.811:06.3
19107Scott Meyers42M5:51:42.911:07.8
2038David Dehart48M5:52:56.911:10.2
21117Norman Plumstead37M5:54:42.311:13.5
2241Drew Deppen27M5:54:52.011:13.8
2360Dale Fleckenstein46M5:55:38.811:15.3
24150Eric Tadt22M5:58:27.711:20.6
2557Bob Fargo50M5:58:37.311:20.9
2685ERROL JONES60M6:00:27.511:24.4
27135Karen Schoenrock47F6:00:29.311:24.5
28144Dustin Speer29M6:00:45.811:25.0
2930Clint Cherepa31M6:02:21.811:28.0
30164kathleen yarger34F6:02:22.811:28.1
31147Craig Swartwout52M6:02:38.311:28.6
32163Paul Wilkerson34M6:06:31.511:35.9
3353Jason Elliot36M6:06:58.711:36.8
3414Patrick Bene46M6:09:14.411:41.1
3517Brad Birkholz42M6:09:45.211:42.1
3687Diana Karls48F6:10:19.011:43.1
3776David House28M6:13:05.711:48.4
3810Andrew Barrett43M6:13:07.711:48.5
39100steve linzmeyer50M6:13:14.411:48.7
4054Andy Emerson41M6:13:20.611:48.9
4115Allan Benjamin54M6:13:20.811:48.9
4267Brian Gruender35M6:13:30.211:49.2
4352Jennifer Eichelberger39F6:15:35.111:53.1
44127Matthew Santner33M6:16:26.411:54.8
4544Jeff Domenico40M6:16:26.611:54.8
4646craig duhn34M6:16:51.911:55.6
47166Cheryl Zwarkowski52F6:16:59.611:55.8
4893michael koppy59M6:21:12.012:03.8
4999Marc Linhardt38M6:21:16.212:03.9
50112paul norberg58M6:22:22.412:06.0
51161Robert Wehner47M6:24:42.112:10.4
52153Julie Treder34F6:24:43.412:10.5
5382Bob Jasinski41M6:24:44.212:10.5
5464Scott Giddings41M6:26:38.612:14.1
5532Jenny Chow46F6:28:54.312:18.4
5679Dale Humphrey51M6:29:29.012:19.5
57156Jason Voccia28M6:29:43.012:20.0
5896Jeff Landon51M6:30:38.612:21.7
59168David Pontious45M6:30:48.312:22.0
6056Bill Fairfield54M6:30:52.812:22.2
61124Kathleen Rytman42F6:30:54.812:22.2
629jay barclay30M6:31:07.312:22.6
6377Alicia Hudelson25F6:34:56.612:29.9
642Bill Abel37M6:35:50.612:31.6
6555james faford46M6:37:50.012:35.4
6658David Files35M6:37:51.812:35.4
6711Mike Barringer38M6:38:13.112:36.1
6868John Gustafson58M6:38:52.812:37.4
6948Darin Dunham41M6:39:57.412:39.4
70121Steve Riportella44M6:42:24.412:44.1
71132Aaron Schneider32M6:43:09.412:45.5
72125Daryl Saari47M6:44:07.912:47.3
73115Zach Pierce36M6:44:27.012:47.9
7445MICHAEL DOMIN36M6:44:41.612:48.4
75140dallas sigurdur39M6:44:49.312:48.6
7647Kenneth Duncan52M6:46:03.112:51.0
776Susan Baehre51F6:46:07.012:51.1
78126Lynn Saari44F6:47:14.512:53.2
7927John Buzansky48M6:49:10.812:56.9
80102Erik Lund27M6:49:51.312:58.2
8133Benjamin Clark19M6:50:10.912:58.8
8292R. Keith Knepper52M6:50:20.612:59.1
8395Willie Lambert47M6:51:53.813:02.1
84157Coleen Voeks37F6:52:09.813:02.6
85151Bruce Tanksley50M6:52:32.413:03.3
86131linda schillerstrom45F6:52:45.913:03.7
8784Michael Johnson45M6:53:45.013:05.6
88111Joe Neubauer62M6:57:31.813:12.8
8919BrendaU Bland50F6:57:59.013:13.6
9026Renee Bull36F6:58:21.313:14.3
9172Craig Hesselink34M6:58:30.913:14.6
92103Aaron mascarella39M6:58:58.813:15.5
9349Greg Dyck44M6:59:22.613:16.3
9490Ed Kelly57M7:00:35.413:18.6
95143Michael Smithson51M7:02:05.213:21.4
9674Rob Horton38M7:02:09.513:21.6
97128Hillary Schaefer30F7:02:15.213:21.7
98104Andrew Mathews48M7:02:46.113:22.7
9925Seamus Buckley40M7:03:44.113:24.6
10013Matt Bartz35M7:04:14.513:25.5
101141Michael Siltman41M7:04:24.213:25.8
102129Lindsay Scheiwiller28F7:05:45.013:28.4
10365Adam Gifford35M7:05:46.913:28.4
104159Rick Wagar47M7:06:00.113:28.9
10562Stephen Geering55M7:06:11.613:29.2
10629Cynthia Carlson40F7:07:23.613:31.5
107105Michael Matteson51M7:08:25.013:33.4
1088Angela Barbera49F7:09:21.513:35.2
109109Jake Milligan27M7:10:36.013:37.6
110114George Peterka50M7:11:29.313:39.3
111122Andrea Risi38F7:13:56.813:44.0
112158Deb Vomhof48F7:13:58.713:44.0
1131Kristopher Aaron35M7:14:11.613:44.4
11463Michael Gibson38M7:14:55.513:45.8
11594Thomas Krause38M7:19:32.713:54.6
11635Tracy Cook43F7:19:38.113:54.8
11769Dennis Hanna54M7:20:53.213:57.1
11859Mary Flaws43F7:20:53.613:57.1
11998Rich Limacher60M7:22:00.813:59.3
120116Richard Plezia51M7:24:52.614:04.7
121106William Mcalpine36M7:24:53.914:04.7
12212Edward Bartone45M7:25:13.714:05.4
12322Rick Bothwell48M7:25:29.814:05.9
12461Mark French37M7:27:01.414:08.8
125154Laurie Tulchin52F7:28:47.614:12.1
1263Juli Aistars51F7:31:43.914:17.7
12770Rebecca Hansen48F7:31:56.814:18.1
128148Spencer Swearingen32M7:32:44.514:19.6
129123Judy Rowland48F7:33:27.414:21.0
13073Kathy Hoover49F7:36:27.414:26.7
1315Eugene Aquino35M7:36:31.314:26.8
13220Holly Bochantin37F7:36:50.614:27.4
133137Karen Shearer45F7:36:59.614:27.7
13424Michael Brown38M7:39:54.714:33.3
13597Leslie Lewinski28F7:43:55.514:40.9
13628Susan Canevello42F7:45:10.114:43.2
13788Lynn Karner53M7:45:15.414:43.4
138162B.J. Wiedman38M7:48:58.814:50.5
139101Dexter Litwiller35M7:49:10.814:50.8
14091Gabriel King32M7:49:15.414:51.0
141145Phil Stapert44M7:51:33.314:55.4
14286mun h kang63M7:52:41.514:57.5
143149Kazimierz Swistun58M7:53:55.714:59.9
14483Craig Johnson52M7:54:17.515:00.6
14581Ryan Jacobson36M8:00:48.415:12.9
14631Ken Childress50M8:18:14.115:46.0
14736Jean-Jacques d'Aquin71M8:27:12.616:03.1
1487Julie Bane46F8:27:22.316:03.4
14923Timothy Bowers46M8:35:02.716:17.9
150136Misty Schuster33F8:35:03.016:17.9

Event Information
Name of Event:Kettle 100 solo
Distance:100.00
Measurement:Kilometers
Date:Saturday June 5th, 2010
button: Assign Numbers 

Event Information
Name of Event:Kettle 100 relay
Distance:100.00
Measurement:Miles
Date:Saturday June 5th, 2010
button: Assign Numbers 

Event Information
Name of Event:Kettle 38 solo
Distance:38.00
Measurement:Miles
Date:Saturday June 5th, 2010
button: Assign Numbers 
2004-2016 : All rights reserved
Terms and Conditions